FW5647 Weather Reports


time (UTC)temp
C
wind
direction
speed
KPH
gust
KPH
rain 1hr
cm
rain 24hr
cm
rain mn
cm
humidity
%
barometer
mb
20260903213042 21 0 0.0 1.6 0.00 0.89 0.89 97 1015.9
20260903211547 21 146 4.8 9.7 0.00 0.89 0.89 97 1016.2
20260903210050 21 257 0.0 0.0 0.23 0.89 0.89 97 1016.1
20260903204602 20 335 0.0 0.0 0.46 0.89 0.89 96 1015.4
20260903203041 20 0 0.0 0.0 0.46 0.89 0.89 96 1015.7
20260903201547 20 0 0.0 4.8 0.43 0.86 0.86 95 1015.2
20260903200041 20 0 0.0 8.0 0.20 0.64 0.64 94 1016.3
20260903193142 28 0 0.0 3.2 0.03 0.41 0.41 80 1012.6
20260903191541 30 0 0.0 8.0 0.00 0.38 0.38 75 1013.0
20260903190041 30 238 3.2 8.0 0.00 0.38 0.38 71 1013.8
20260903184543 29 0 0.0 3.2 0.00 0.38 0.38 71 1013.9
20260903183041 28 108 4.8 9.7 0.00 0.38 0.38 69 1014.4
20260903181540 28 0 1.6 9.7 0.00 0.38 0.38 68 1014.6
20260903180040 28 122 1.6 9.7 0.00 0.38 0.38 68 1014.5
20260903174544 28 131 3.2 12.9 0.00 0.38 0.38 68 1014.5
20260903173042 27 0 1.6 9.7 0.00 0.38 0.38 72 1014.6
20260903171545 27 124 1.6 8.0 0.00 0.38 0.38 74 1014.6
20260903170040 26 118 1.6 17.7 0.00 0.38 0.38 77 1014.3
20260903164547 25 129 3.2 9.7 0.00 0.38 0.38 79 1014.5
20260903163049 24 0 4.8 11.3 0.00 0.38 0.38 82 1014.8
20260903161548 23 116 0.0 4.8 0.00 0.38 0.38 86 1015.2
20260903160058 23 0 1.6 9.7 0.00 0.38 0.38 87 1015.7
20260903154543 23 350 0.0 4.8 0.00 0.38 0.38 94 1016.0
20260903153041 23 0 0.0 19.3 0.00 0.38 0.38 94 1015.5
20260903151541 23 319 0.0 3.2 0.00 0.38 0.38 94 1016.1
20260903150058 23 0 0.0 0.0 0.00 0.38 0.38 93 1014.9
20260903144544 23 0 0.0 14.5 0.00 0.38 0.38 93 1014.6
20260903143042 23 0 4.8 14.5 0.00 0.38 0.38 95 1015.5
20260903141543 24 0 0.0 0.0 0.00 0.38 0.38 95 1015.2
20260903140047 24 0 0.0 0.0 0.00 0.38 0.38 95 1014.9
20260903134543 24 0 0.0 0.0 0.00 0.38 0.38 96 1014.7
20260903133042 24 0 0.0 6.4 0.00 0.38 0.38 96 1015.3
20260903131541 23 281 0.0 3.2 0.00 0.38 0.38 97 1015.1
20260903130041 23 0 0.0 0.0 0.00 0.38 0.38 97 1015.1
20260903124551 22 0 0.0 0.0 0.00 0.38 0.38 97 1015.0
20260903123040 21 0 0.0 0.0 0.00 0.38 0.38 97 1015.3
20260903121538 21 0 0.0 0.0 0.00 0.38 0.38 97 1015.2
20260903120057 20 0 0.0 0.0 0.00 0.38 0.38 97 1015.1
20260903114540 20 0 0.0 0.0 0.00 0.38 0.38 96 1015.1
20260903113048 20 0 0.0 0.0 0.00 0.38 0.38 96 1015.1
20260903111546 20 0 0.0 0.0 0.00 0.38 0.38 96 1015.0
20260903110043 20 0 0.0 0.0 0.00 0.38 0.38 96 1014.9
20260903104547 20 0 0.0 0.0 0.00 0.38 0.38 96 1014.9
20260903103040 20 0 0.0 0.0 0.00 0.38 0.38 96 1014.6
20260903101547 20 0 0.0 0.0 0.00 0.38 0.38 96 1014.7
20260903100041 20 0 0.0 0.0 0.00 0.38 0.38 96 1014.6
20260903094543 20 0 0.0 0.0 0.00 0.38 0.38 96 1014.6
20260903093052 20 0 0.0 0.0 0.00 0.38 0.38 96 1014.6
20260903091543 20 0 0.0 0.0 0.00 0.38 0.38 96 1014.6
20260903090042 20 0 0.0 0.0 0.00 0.38 0.38 96 1014.4
20260903084540 21 0 0.0 0.0 0.00 0.38 0.38 96 1014.4
20260903083039 21 0 0.0 0.0 0.00 0.38 0.38 95 1014.2
20260903081542 21 0 0.0 0.0 0.00 0.38 0.38 95 1014.3
20260903080040 21 0 0.0 0.0 0.00 0.38 0.38 95 1014.4
20260903074544 21 0 0.0 0.0 0.00 0.38 0.38 95 1014.3
20260903073050 21 247 0.0 1.6 0.00 0.38 0.38 95 1014.4
20260903071541 21 0 0.0 3.2 0.00 0.38 0.38 95 1014.6
20260903070048 21 0 0.0 0.0 0.00 0.38 0.38 95 1014.5
20260903064543 21 0 0.0 0.0 0.00 0.38 0.38 95 1014.0
20260903063047 21 0 0.0 0.0 0.00 0.38 0.38 94 1014.1
20260903061551 21 0 0.0 0.0 0.00 0.38 0.38 94 1014.0
20260903060043 21 0 0.0 0.0 0.00 0.38 0.38 94 1014.2
20260903054553 22 0 0.0 0.0 0.00 0.38 0.38 94 1014.1
20260903053051 22 0 0.0 0.0 0.00 0.38 0.38 93 1014.1
20260903051544 22 0 0.0 0.0 0.00 0.38 0.38 93 1014.0
20260903050049 22 0 0.0 0.0 0.38 0.38 0.38 93 1014.0
20260903044554 22 0 0.0 0.0 0.38 0.38 0.38 92 1014.1
20260903043047 22 0 0.0 0.0 0.38 0.38 0.38 90 1013.7
20260903041543 23 0 0.0 25.7 0.38 0.38 0.38 88 1013.6
20260903040049 23 0 0.0 11.3 0.00 0.00 0.00 81 1013.9
20260903034551 23 0 0.0 3.2 0.00 0.00 0.00 81 1013.9
20260903033045 23 127 0.0 8.0 0.00 0.00 0.00 79 1014.1
20260903031622 23 0 0.0 8.0 0.00 0.00 0.00 78 1014.2
20260903030054 26 340 11.3 25.7 0.00 0.00 0.00 73 1014.2
20260903024548 27 0 1.6 8.0 0.00 0.00 0.00 80 1013.2
20260903023044 26 257 1.6 6.4 0.00 0.00 0.00 81 1012.3
20260903021543 26 0 0.0 0.0 0.00 0.00 0.00 83 1012.3
20260903020052 26 0 0.0 0.0 0.00 0.00 0.00 82 1013.5
20260903014555 26 0 0.0 0.0 0.00 0.00 0.00 81 1013.5
20260903013044 26 0 0.0 0.0 0.00 0.00 0.00 80 1013.4
20260903011556 27 0 0.0 0.0 0.00 0.00 0.00 79 1013.3
20260903010050 27 0 0.0 0.0 0.00 0.00 0.00 78 1013.0
20260903004550 27 0 0.0 1.6 0.00 0.00 0.00 77 1012.9
20260903003046 28 0 0.0 1.6 0.00 0.00 0.00 76 1012.8
20260903001544 28 0 0.0 0.0 0.00 0.00 0.00 74 1012.6
20260903000047 29 0 0.0 0.0 0.00 0.00 0.00 71 1012.7
20260902234554 30 0 0.0 1.6 0.00 0.00 0.00 70 1012.8
20260902233048 31 0 0.0 8.0 0.00 0.00 0.00 67 1012.7
20260902231549 31 264 0.0 12.9 0.00 0.00 0.00 64 1012.7
20260902230046 32 262 1.6 12.9 0.00 0.00 0.00 64 1012.6
20260902224551 32 245 1.6 12.9 0.00 0.00 0.00 63 1012.7
20260902223046 32 245 6.4 14.5 0.00 0.00 0.00 62 1012.7
20260902221541 32 226 1.6 19.3 0.00 0.00 0.00 61 1012.7
20260902220041 33 265 4.8 22.5 0.00 0.00 0.00 60 1012.2
20260902214547 33 219 3.2 14.5 0.00 0.00 0.00 60 1012.7